Location: Colorado Springs
(38.8340°N, 104.8210°W)
Time: 23:58:12
(UTC-06:00)

Envisat - Pass Details

Date: 13 October 2017
Orbit: 764 x 766 km, 98.2° (Epoch: 16 October)

Event Time Altitude Azimuth Distance (km) Brightness Sun altitude
Exits shadow 20:37:12 43° 12° (NNE) 1,061 3.6 -26.8°
Drops below altitude 10° 20:40:44 10° 354° (N) 2,308 5.7 -27.5°
Sets 20:43:03 0° 351° (N) 3,238 6.5 -27.9°
